Location: Caltech
(34.1382°N, 118.1253°W)
Time: 20:22:12
(UTC-07:00)

Gbstr 26 Del rocket - Visible Passes

Search period start: 24 May 2016 00:00
Search period end: 03 June 2016 00:00
Orbit: 493 x 1267 km, 51.8° (Epoch: 24 May)

Date Brightness Start Highest point End Pass type
(mag) Time Alt. Az. Time Alt. Az. Time Alt. Az.
24 May 4.5 21:14:10 10° NW 21:21:40 74° NE 21:27:05 23° ESE visible
24 May 5.5 23:02:16 10° WNW 23:08:51 30° SW 23:09:40 30° SW visible
25 May 4.5 21:10:05 10° NW 21:17:34 87° NE 21:23:16 22° SE visible
25 May 5.8 22:58:39 10° WNW 23:04:36 24° WSW 23:05:51 23° SW visible
26 May 4.5 21:06:02 10° NW 21:13:28 80° SW 21:19:31 20° SE visible
26 May 6.1 22:55:14 10° W 23:00:21 19° WSW 23:02:07 18° SW visible
27 May 4.7 21:02:00 10° NW 21:09:20 67° SW 21:15:50 17° SSE visible
27 May 6.4 22:52:11 10° W 22:56:04 14° WSW 22:58:26 13° SW visible
28 May 4.9 20:58:01 10° NW 21:05:11 55° SW 21:12:14 13° SSE visible
28 May 6.6 22:50:23 10° WSW 22:51:47 10° WSW 22:53:11 10° SW visible
29 May 5.2 20:54:05 10° WNW 21:01:01 45° SW 21:08:35 10° SSE visible
30 May 5.6 20:50:15 10° WNW 20:56:50 36° SW 21:04:00 10° S visible
31 May 5.9 20:46:29 10° WNW 20:52:38 29° SW 20:59:17 10° S visible
01 Jun 6.2 20:42:53 10° WNW 20:48:25 23° SW 20:54:21 10° S visible
02 Jun 6.5 20:39:31 10° W 20:44:11 18° WSW 20:49:09 10° SSW visible
